Temp
83 79 75 79 78 78 76 74 74 79 82 76 79 80 84 82 80 78 75 73 70 68 70 68 68 68 67 66 65 64 61 60 62 62 61 63 63 62 61 60 56 55 55 54
77 74 80 79 77 75 75 73 74 79 78 76 79 78 77 78 75 74 75 72 68 66 65 64 65 65 64 64 63 62 61 61 62 63 56 58 61 60 59 59 56 55 53 53
74 77 79 76 76 73 75 72 74 73 76 78 75 76 75 76 74 72 70 71 68 65 62 62 62 63 63 62 61 62 59 58 57 52 54 57 57 60 61 59 57 55 53 52
76 79 75 75 74 75 70 77 74 73 72 70 77 67 72 75 72 65 64 64 65 64 63 62 61 61 61 60 61 59 56 54 52 49 51 53 56 54 55 55 56 54 52 51
73 74 73 72 74 76 72 75 74 73 73 70 72 69 68 74 68 65 61 61 62 62 62 60 61 61 61 60 57 56 54 51 46 50 52 56 54 56 56 54 51 52 52 51
76 80 79 78 78 78 77 74 73 73 72 62 69 68 60 63 59 62 60 59 59 60 60 61 60 59 59 59 56 54 51 45 50 51 53 52 50 51 51 49 50 51 52 52
73 75 79 77 74 77 75 71 62 59 60 59 68 66 58 61 58 57 57 56 56 57 57 56 56 57 57 55 55 52 48 46 50 51 52 51 51 49 48 50 50 48 49 49
67 63 73 76 74 72 73 72 62 50 55 61 66 60 57 58 59 57 56 55 56 56 56 57 58 58 56 55 53 51 47 47 50 52 51 51 49 52 52 50 49 49 48 49
66 64 75 74 76 75 70 67 71 60 59 58 63 57 58 65 59 55 54 53 53 55 57 57 58 57 55 54 52 48 47 48 52 51 51 50 50 49 49 48 49 49 49 49
70 62 70 72 76 76 72 73 63 66 51 49 58 57 56 58 57 56 53 53 54 56 57 56 57 55 56 53 47 46 46 50 51 51 51 51 50 49 49 49 47 48 48 48
72 68 66 71 68 66 71 70 66 66 62 54 53 54 58 57 57 55 54 54 54 55 56 56 55 56 54 50 46 43 51 50 51 51 50 49 49 49 49 48 48 48 47 47
68 68 63 63 69 72 71 65 65 60 55 58 58 53 59 57 57 56 54 53 55 56 57 56 56 54 49 46 45 52 51 51 50 50 49 48 48 48 48 47 47 47 47 47
68 63 59 59 65 70 64 65 65 63 64 53 53 53 59 58 56 55 54 54 54 55 55 55 54 52 47 48 48 50 52 50 50 50 49 48 47 47 47 47 46 46 46 45
64 62 58 56 57 64 58 63 66 64 58 55 55 55 58 57 55 54 54 54 54 54 53 54 54 51 50 48 47 50 50 50 50 50 49 47 47 46 46 46 46 45 45 44
68 56 60 61 63 63 61 61 63 59 59 55 55 56 57 57 57 56 55 54 53 52 53 53 53 51 49 42 43 51 50 50 49 48 48 46 47 47 46 45 45 45 44 44
66 56 60 56 61 62 58 60 61 60 60 59 58 55 60 59 59 56 54 53 53 52 51 51 51 49 39 39 46 49 50 49 50 48 47 47 46 46 44 44 44 44 44 44
62 59 57 50 57 57 51 56 58 58 60 60 55 57 61 58 57 58 56 55 54 53 52 49 49 41 39 40 49 49 50 50 48 47 47 46 45 44 44 45 44 43 43 44
62 60 59 52 54 38 55 62 62 59 59 61 60 60 60 60 59 59 60 58 55 53 50 47 42 41 41 47 51 50 51 49 47 46 45 45 45 44 44 45 44 43 45 44
66 62 52 47 50 52 55 59 58 57 56 62 60 60 59 59 59 55 57 58 56 55 50 43 43 42 44 50 51 50 49 48 46 44 44 44 44 43 43 43 43 44 44 44
63 65 60 48 42 41 56 62 66 65 52 62 62 60 58 59 56 52 55 56 53 48 45 41 41 43 51 50 50 49 47 47 44 43 43 44 44 43 43 43 43 44 45 44
56 58 53 50 48 52 62 63 66 50 52 62 63 61 59 58 56 54 56 53 48 46 42 43 45 51 51 51 50 47 47 44 44 44 44 44 45 44 44 45 45 45 44 44
56 52 52 54 49 42 65 63 56 60 62 62 61 60 56 54 54 54 53 49 49 44 43 48 51 50 50 50 50 47 44 44 45 44 44 44 44 45 45 45 45 45 43 42
54 61 58 58 56 61 63 63 65 66 64 62 60 59 56 54 53 53 50 51 50 49 51 52 51 49 49 49 49 45 43 45 44 43 38 43 45 45 45 44 43 43 42 40
59 61 59 58 58 61 61 64 65 66 62 63 61 59 58 54 54 51 51 50 50 51 50 51 49 47 46 47 46 44 36 33 34 35 43 45 45 43 45 44 42 41 38 36
61 62 58 54 58 60 61 63 61 60 61 60 60 59 57 55 53 52 51 50 51 51 50 50 48 47 42 44 42 43 43 44 45 45 45 45 45 44 44 44 40 38 37 33
63 59 59 58 61 63 59 61 62 60 59 59 57 56 57 56 54 54 52 52 51 49 50 48 46 38 34 39 38 43 46 46 45 45 45 42 45 45 44 43 42 31 31 30
MSLP
1007.45 1006.91 1006.28 1005.92 1006.72 1006.85 1006.72 1006.51 1006.02 1005.97 1006.27 1006.78 1005.90 1005.83 1005.99 1007.87 1009.01 1010.11 1011.64 1013.37 1015.19 1016.70 1018.30 1019.60 1020.59 1021.56 1022.38 1023.40 1024.11 1024.83 1025.50 1026.16 1026.26 1026.30 1026.46 1026.46 1026.45 1026.73 1027.07 1027.09 1027.73 1027.49 1027.59 1027.45
1007.47 1006.57 1006.57 1007.41 1007.52 1007.28 1006.97 1006.53 1006.02 1005.85 1006.56 1006.77 1005.73 1005.72 1007.57 1008.92 1010.53 1011.79 1012.44 1013.97 1015.91 1017.77 1019.23 1020.49 1021.54 1022.44 1023.18 1023.83 1024.68 1025.35 1025.93 1026.39 1026.50 1026.57 1027.23 1027.03 1026.97 1026.99 1027.20 1027.69 1027.85 1027.87 1027.82 1027.73
1006.73 1006.66 1007.59 1007.57 1007.21 1007.17 1006.69 1006.54 1006.12 1006.03 1006.39 1006.40 1006.15 1005.31 1007.40 1009.57 1011.67 1013.11 1014.52 1015.48 1016.96 1018.37 1019.73 1021.08 1022.13 1022.97 1023.79 1024.51 1025.16 1025.77 1026.62 1027.16 1027.53 1028.07 1027.91 1027.76 1027.57 1026.93 1026.74 1027.35 1027.27 1027.79 1028.13 1027.95
1007.07 1007.28 1007.59 1007.38 1007.03 1007.16 1006.43 1006.67 1006.63 1006.29 1006.02 1005.05 1006.03 1005.57 1007.41 1009.28 1011.78 1014.31 1016.03 1017.17 1018.15 1019.27 1020.49 1021.67 1022.70 1023.57 1024.41 1025.27 1026.08 1026.92 1027.50 1027.91 1028.52 1028.61 1028.36 1028.05 1027.34 1027.01 1027.74 1027.58 1027.55 1027.62 1028.07 1028.03
1006.84 1007.24 1007.37 1007.14 1006.83 1007.17 1006.62 1007.12 1006.78 1006.37 1005.80 1006.07 1005.78 1006.50 1008.49 1010.24 1012.53 1015.08 1017.46 1018.69 1019.55 1020.41 1021.35 1022.38 1023.33 1024.36 1025.27 1025.98 1026.96 1027.67 1028.25 1028.82 1029.32 1028.95 1028.58 1028.05 1027.87 1027.89 1027.95 1027.81 1027.89 1027.76 1027.74 1027.97
1007.11 1007.57 1007.33 1006.90 1007.02 1007.23 1007.30 1007.09 1006.85 1006.69 1006.17 1005.85 1006.15 1007.59 1010.66 1012.63 1015.51 1016.89 1018.70 1019.98 1020.79 1021.56 1022.38 1023.23 1024.37 1025.26 1025.90 1026.66 1027.57 1028.21 1028.87 1029.42 1029.21 1029.00 1028.88 1028.83 1028.64 1028.43 1028.26 1028.31 1027.93 1027.69 1027.55 1027.48
1007.13 1006.99 1007.09 1007.52 1006.99 1007.20 1007.17 1006.65 1005.90 1005.72 1005.63 1005.89 1007.57 1008.90 1013.01 1015.55 1017.62 1019.01 1019.94 1021.07 1021.96 1022.66 1023.28 1024.21 1024.97 1025.57 1026.38 1027.30 1027.90 1028.83 1029.47 1029.56 1029.35 1029.26 1029.23 1029.27 1029.11 1029.08 1028.73 1028.43 1028.19 1028.03 1027.86 1027.64
1006.63 1006.67 1007.15 1007.53 1007.15 1006.49 1006.50 1006.46 1006.15 1006.02 1006.21 1006.71 1008.69 1010.30 1014.75 1017.37 1018.95 1020.41 1021.37 1022.13 1022.74 1023.31 1023.98 1024.54 1025.20 1025.91 1026.99 1027.82 1028.70 1029.32 1029.79 1029.71 1029.65 1029.52 1029.58 1029.52 1029.59 1029.10 1028.81 1028.80 1028.67 1028.35 1028.19 1027.84
1007.43 1007.37 1007.88 1008.00 1007.75 1007.66 1007.13 1007.06 1007.45 1007.33 1008.25 1008.38 1009.45 1013.07 1015.76 1016.73 1018.90 1020.64 1021.74 1022.56 1023.16 1023.74 1024.31 1024.97 1025.83 1026.61 1027.65 1028.41 1029.17 1029.94 1030.11 1029.99 1029.76 1029.82 1029.83 1029.81 1029.66 1029.51 1029.36 1029.16 1028.98 1028.55 1028.25 1028.03
1008.53 1008.01 1008.39 1008.42 1008.28 1008.09 1007.72 1008.24 1007.88 1007.72 1008.02 1008.55 1010.11 1012.64 1014.97 1017.07 1018.82 1020.40 1021.68 1022.62 1023.47 1024.07 1024.71 1025.49 1026.29 1027.23 1028.01 1029.16 1030.20 1030.48 1030.43 1030.07 1030.01 1030.09 1030.14 1030.01 1029.97 1029.86 1029.65 1029.35 1029.07 1028.75 1028.38 1027.96
1009.41 1008.89 1008.89 1008.76 1008.83 1008.70 1008.21 1008.22 1008.79 1008.77 1009.32 1009.45 1010.69 1013.48 1016.95 1018.23 1019.54 1020.64 1021.94 1022.93 1023.64 1024.29 1025.01 1025.80 1026.81 1027.69 1028.75 1029.81 1030.45 1030.81 1030.21 1030.09 1030.15 1030.27 1030.31 1030.25 1030.13 1029.99 1029.72 1029.40 1029.13 1028.80 1028.43 1028.06
1010.55 1009.86 1009.27 1009.74 1010.29 1010.13 1009.75 1009.87 1009.66 1009.25 1009.90 1011.09 1012.08 1015.22 1017.99 1019.24 1020.29 1021.27 1022.33 1023.34 1023.99 1024.62 1025.33 1026.23 1027.14 1028.11 1029.33 1030.10 1030.63 1030.21 1030.34 1030.26 1030.53 1030.61 1030.65 1030.53 1030.36 1030.17 1029.83 1029.58 1029.35 1029.09 1028.55 1028.13
1011.22 1010.80 1010.17 1010.40 1010.68 1010.52 1010.65 1011.00 1011.01 1010.89 1011.01 1011.95 1012.81 1015.45 1018.26 1019.68 1020.68 1021.81 1022.55 1023.61 1024.46 1025.11 1025.84 1026.65 1027.50 1028.47 1029.59 1030.13 1030.49 1030.39 1030.34 1030.53 1030.69 1030.70 1030.62 1030.64 1030.56 1030.30 1030.00 1029.77 1029.60 1029.27 1028.83 1028.40
1011.95 1011.87 1011.47 1011.03 1011.50 1011.67 1011.80 1011.71 1011.60 1011.44 1011.61 1012.64 1014.21 1015.90 1017.81 1019.33 1020.55 1021.88 1022.87 1023.74 1024.54 1025.40 1026.17 1026.83 1027.69 1028.85 1029.58 1030.36 1030.74 1030.65 1030.66 1030.90 1030.88 1030.86 1030.81 1030.83 1030.75 1030.61 1030.41 1030.13 1029.80 1029.50 1029.10 1028.59
1012.24 1012.56 1012.80 1012.74 1012.89 1012.92 1012.91 1012.83 1012.69 1012.85 1013.39 1013.59 1015.21 1016.35 1018.19 1019.58 1020.52 1021.76 1022.89 1023.80 1024.61 1025.39 1026.20 1027.02 1027.81 1029.03 1029.93 1030.99 1031.19 1030.82 1030.92 1031.08 1031.12 1031.05 1030.97 1031.07 1031.03 1030.83 1030.64 1030.34 1030.01 1029.67 1029.20 1028.71
1013.06 1013.58 1013.58 1013.92 1013.92 1013.81 1013.96 1014.04 1014.09 1014.33 1014.64 1015.23 1015.92 1017.29 1018.94 1020.13 1021.08 1021.93 1022.89 1023.73 1024.47 1025.34 1026.40 1027.38 1028.39 1029.47 1030.89 1031.34 1031.11 1031.10 1031.09 1031.29 1031.31 1031.26 1031.28 1031.37 1031.28 1031.05 1030.88 1030.51 1030.12 1029.63 1029.15 1028.69
1013.22 1013.73 1013.83 1014.34 1014.91 1014.81 1014.95 1015.27 1015.17 1015.55 1015.87 1016.00 1016.40 1017.98 1019.11 1019.91 1020.85 1021.68 1022.60 1023.57 1024.41 1025.49 1026.67 1027.89 1028.86 1030.28 1031.07 1031.43 1031.12 1031.09 1031.25 1031.51 1031.53 1031.55 1031.66 1031.71 1031.57 1031.32 1031.03 1030.61 1030.20 1029.70 1029.16 1028.59
1013.50 1013.85 1014.34 1014.77 1015.42 1015.57 1015.99 1016.27 1016.13 1016.27 1016.75 1017.17 1017.68 1018.50 1019.45 1020.29 1021.53 1022.32 1023.04 1023.63 1024.81 1026.07 1027.29 1028.57 1029.81 1030.64 1031.19 1031.09 1031.00 1031.31 1031.43 1031.61 1031.74 1031.89 1032.03 1032.04 1031.88 1031.56 1031.18 1030.67 1030.29 1029.81 1029.18 1028.54
1013.91 1013.99 1014.75 1015.33 1015.45 1016.26 1016.32 1016.47 1016.45 1016.31 1017.07 1017.75 1018.15 1019.09 1020.05 1021.16 1021.97 1023.17 1024.04 1024.56 1025.54 1026.65 1028.25 1029.48 1030.29 1030.88 1031.20 1030.81 1031.13 1031.39 1031.63 1031.83 1032.03 1032.28 1032.41 1032.41 1032.26 1031.81 1031.39 1030.92 1030.48 1029.99 1029.33 1028.73
1014.39 1014.25 1014.49 1015.73 1015.85 1015.73 1015.73 1016.44 1016.81 1016.90 1017.11 1018.24 1018.77 1019.48 1020.35 1021.28 1021.29 1023.54 1024.96 1025.80 1027.03 1028.37 1029.37 1030.15 1030.79 1031.16 1030.74 1031.07 1031.39 1031.61 1031.85 1032.12 1032.45 1032.77 1032.87 1032.67 1032.46 1032.09 1031.61 1031.17 1030.65 1030.16 1029.55 1028.99
1014.28 1014.44 1014.63 1015.27 1015.68 1016.09 1016.41 1016.87 1017.03 1017.12 1018.31 1018.78 1019.35 1020.07 1020.82 1021.52 1023.20 1024.75 1025.87 1027.06 1028.39 1029.31 1030.03 1030.61 1030.95 1030.49 1030.91 1031.41 1031.75 1031.99 1032.26 1032.60 1033.06 1033.21 1033.09 1032.86 1032.57 1032.25 1031.81 1031.26 1030.75 1030.24 1029.74 1029.15
1014.11 1014.46 1014.82 1015.44 1015.77 1016.37 1016.86 1017.25 1017.30 1018.02 1018.86 1019.49 1020.24 1021.11 1022.11 1023.35 1024.53 1025.55 1026.73 1027.92 1028.74 1029.75 1030.40 1030.48 1030.48 1030.93 1031.36 1031.85 1032.06 1032.28 1032.68 1033.26 1033.36 1033.36 1033.16 1032.96 1032.71 1032.35 1031.90 1031.39 1030.93 1030.42 1030.03 1029.45
1014.69 1014.79 1014.87 1015.82 1016.17 1017.20 1017.63 1017.64 1018.38 1018.63 1019.27 1020.13 1020.95 1022.02 1022.94 1024.00 1025.15 1026.25 1027.39 1028.22 1028.95 1029.59 1029.95 1030.44 1030.88 1031.44 1031.88 1032.26 1032.48 1032.71 1033.32 1033.51 1033.59 1033.54 1033.77 1033.10 1032.63 1032.32 1032.04 1031.71 1031.35 1030.85 1030.66 1030.15
1015.35 1015.71 1015.57 1016.25 1017.51 1017.75 1018.36 1018.84 1019.26 1019.67 1020.30 1020.97 1021.87 1022.71 1023.59 1024.58 1025.73 1026.85 1027.83 1028.55 1029.15 1029.74 1030.29 1030.87 1031.40 1031.85 1032.39 1032.79 1033.16 1033.57 1034.09 1034.13 1034.17 1033.99 1033.13 1032.81 1032.59 1032.54 1032.16 1032.13 1032.08 1031.79 1031.77 1031.39
1015.58 1015.93 1016.23 1017.26 1017.91 1018.61 1019.06 1019.41 1020.19 1020.83 1021.43 1022.08 1022.93 1023.55 1024.36 1025.27 1026.28 1027.21 1028.05 1028.90 1029.50 1030.17 1030.90 1031.37 1031.87 1032.47 1033.26 1033.51 1033.89 1034.07 1034.13 1033.98 1033.52 1033.27 1033.10 1032.93 1032.71 1032.52 1032.30 1032.31 1032.94 1032.92 1032.99 1033.21
1016.12 1016.15 1016.13 1016.15 1017.23 1017.63 1019.07 1020.22 1020.93 1021.42 1022.13 1022.94 1023.64 1024.46 1025.28 1025.97 1026.75 1027.61 1028.38 1029.19 1029.92 1030.70 1031.46 1032.07 1032.89 1033.91 1034.34 1034.40 1034.61 1034.36 1034.05 1033.79 1033.58 1033.30 1033.31 1033.54 1032.96 1032.74 1032.65 1032.55 1032.68 1033.66 1033.63 1033.63
Wind_Speed
4 10 12 8 3 8 7 9 12 12 4 7 8 10 11 13 13 9 5 7 9 10 12 13 13 13 13 11 11 10 9 8 4 4 2 1 2 2 3 5 6 6 7 8
8 12 2 1 2 4 6 10 13 7 3 7 5 4 14 17 18 16 10 9 10 12 13 13 14 13 12 11 11 10 8 6 5 4 5 3 2 3 5 4 4 7 7 8
12 3 6 2 5 7 10 9 10 9 3 7 6 10 15 17 21 19 17 13 10 11 13 14 14 13 12 12 10 10 10 9 10 7 1 2 4 3 2 3 5 5 8 7
10 3 7 9 10 6 10 3 7 7 8 5 2 6 13 12 19 21 16 12 9 10 11 13 13 13 12 12 11 12 11 11 10 8 3 5 6 6 5 5 5 6 6 7
5 7 8 8 7 4 4 3 3 3 5 6 9 9 12 11 13 19 14 11 9 9 11 13 13 13 13 12 12 11 12 11 7 6 5 5 6 3 3 5 6 6 6 6
4 0 6 10 3 7 0 6 5 5 6 10 3 7 13 9 13 13 11 10 9 9 11 13 13 13 12 12 11 10 11 7 7 6 7 7 6 6 7 7 6 6 5 5
7 10 4 4 10 7 9 8 7 6 7 3 5 5 10 11 11 10 8 8 8 8 11 13 14 12 11 11 11 10 8 7 6 6 7 7 7 8 6 8 7 8 7 6
4 8 2 2 6 5 8 8 6 7 6 3 4 6 9 7 8 7 7 7 7 8 11 12 12 11 11 11 11 9 7 7 6 7 7 7 7 5 6 8 7 7 6 7
3 4 7 7 2 4 5 5 6 1 2 6 6 8 7 7 10 6 6 5 6 8 11 12 11 10 10 10 10 8 7 5 6 7 6 6 7 8 8 8 8 7 8 8
2 3 3 3 3 9 4 3 4 3 4 5 6 5 9 10 10 6 5 6 7 9 11 11 10 10 9 11 9 7 4 6 6 6 6 7 8 8 8 8 9 9 9 10
2 5 5 5 7 7 2 1 2 2 4 5 5 9 7 9 8 6 6 6 7 9 11 11 9 9 11 10 8 4 4 5 6 6 7 7 7 8 8 7 9 9 10 10
3 2 2 7 5 6 9 4 4 5 5 3 4 7 6 6 5 4 6 6 7 9 10 10 10 10 9 8 6 3 4 6 6 6 7 7 8 8 8 9 10 10 11 10
2 2 4 7 6 4 5 6 3 2 2 4 5 8 5 5 5 5 6 7 8 9 10 9 9 9 8 6 2 4 5 6 6 6 6 7 8 9 9 10 10 11 11 11
2 5 6 5 6 2 5 7 4 5 4 5 6 10 7 6 5 5 6 6 8 9 9 9 8 8 7 5 4 2 5 5 5 6 7 7 9 9 10 10 10 10 11 11
3 6 7 9 9 10 8 7 7 9 4 5 6 8 8 7 5 5 6 7 8 9 9 9 8 8 7 4 1 2 4 4 5 6 7 8 9 8 9 10 10 10 11 11
3 5 10 9 6 7 9 7 9 9 7 7 4 9 5 6 6 6 6 7 7 8 8 8 8 7 5 3 2 3 3 4 5 6 7 8 8 9 9 9 10 10 11 11
3 7 6 6 1 2 5 5 6 7 6 5 5 7 3 4 4 3 4 5 5 7 9 9 7 8 5 4 3 1 3 3 5 6 8 8 8 9 9 9 10 11 11 11
8 6 0 4 5 2 6 4 3 7 6 5 4 4 4 6 7 6 3 3 5 7 8 8 9 7 6 6 4 4 3 4 5 7 7 8 8 8 9 10 11 11 11 12
2 4 4 4 4 3 6 6 4 3 6 3 3 4 6 7 7 10 5 5 6 6 7 9 7 7 6 6 5 4 3 5 6 7 7 7 8 9 10 11 12 11 12 12
5 2 3 3 3 4 7 5 2 3 5 3 2 3 5 6 6 8 7 8 11 10 9 9 8 7 6 6 6 4 4 4 6 6 6 7 7 9 10 11 11 11 11 11
6 5 5 5 2 3 6 6 5 5 7 5 3 4 4 2 7 12 11 12 10 9 10 9 8 6 7 7 4 4 4 6 5 4 6 7 8 9 10 10 10 11 11 11
6 5 4 3 2 3 6 6 3 7 5 6 6 7 10 13 14 13 12 10 10 11 9 7 7 7 7 6 3 4 6 4 4 5 6 7 8 7 8 11 11 11 12 12
5 2 2 4 5 7 4 9 7 4 8 6 9 11 14 15 14 12 11 9 10 10 8 7 7 8 6 5 4 5 4 3 3 6 6 7 7 8 8 10 11 9 11 11
4 3 3 7 6 9 10 8 8 8 10 10 12 13 13 16 14 13 10 9 8 8 7 7 7 7 6 6 6 5 4 3 1 3 5 6 7 9 8 7 8 9 9 10
3 7 9 7 8 8 5 8 10 12 13 14 11 11 14 15 13 12 10 10 8 7 7 6 6 6 6 6 6 5 2 3 4 5 6 7 6 8 8 7 6 8 8 9
3 5 4 3 15 2 12 11 12 13 12 12 14 14 12 12 13 11 10 9 8 8 7 7 8 8 4 5 3 3 3 5 6 6 5 6 6 6 7 7 5 8 5 6
Wind_Direction
188 236 228 255 336 317 293 278 278 284 270 265 271 296 26 44 42 53 87 127 130 143 131 142 136 136 129 126 122 117 112 109 132 149 138 100 21 52 29 45 15 22 12 2
206 233 300 259 219 246 249 269 270 280 161 242 313 322 74 61 58 43 50 101 122 124 136 135 140 135 137 124 111 111 111 92 53 51 39 357 3 51 27 16 19 14 5 1
254 68 132 223 225 254 256 273 281 285 158 233 258 226 108 91 61 55 53 68 106 136 140 141 142 135 127 119 114 100 84 79 61 66 49 63 185 199 357 352 7 25 356 359
248 137 229 247 264 270 278 22 286 257 245 276 250 299 82 123 66 52 49 62 89 118 133 139 136 137 115 104 96 83 81 78 61 33 27 349 6 4 7 348 11 339 4 352
146 190 198 225 260 212 318 320 288 238 262 275 181 265 80 56 26 33 42 59 81 108 129 136 137 121 113 108 97 96 81 73 67 54 14 350 19 20 2 352 342 352 358 354
283 223 247 258 249 229 268 234 219 235 269 252 114 286 63 25 359 11 49 62 82 105 123 126 119 125 116 103 97 90 86 83 68 52 41 32 23 5 2 357 343 353 350 340
188 216 204 249 253 192 224 246 255 239 216 297 102 266 51 32 19 17 36 67 89 113 128 135 142 132 117 116 102 92 92 77 63 52 40 30 16 19 353 350 354 342 344 343
248 169 231 75 275 317 216 277 277 282 288 352 158 136 75 64 53 52 61 78 104 125 140 148 140 133 118 101 93 95 87 70 49 39 33 28 16 360 356 359 350 346 335 336
230 121 100 59 338 281 139 233 4 188 31 257 93 105 135 51 70 62 68 91 110 133 146 142 132 115 111 110 97 89 75 62 40 36 23 21 8 5 359 349 346 343 336 331
75 193 37 74 243 76 351 78 228 190 255 285 120 95 45 19 27 75 86 98 117 135 142 141 132 126 116 97 97 78 58 52 40 34 17 14 5 359 354 346 345 338 334 329
302 286 106 211 25 6 160 130 30 358 326 301 296 93 13 10 23 52 86 105 131 145 147 147 135 127 107 110 93 105 72 49 34 26 15 9 0 355 350 345 343 343 335 335
43 341 74 83 87 30 51 29 327 300 123 33 317 96 37 37 52 72 104 117 127 144 149 142 140 128 127 119 87 88 62 40 29 24 10 2 359 352 355 356 352 346 344 341
27 32 175 162 166 104 42 17 14 59 313 31 309 86 94 99 91 93 118 128 141 148 148 150 148 136 133 132 135 61 44 40 24 12 4 7 1 0 358 357 355 352 349 347
259 58 9 8 52 30 91 54 29 342 302 100 44 114 86 81 94 121 124 136 143 158 161 162 158 143 153 104 71 50 52 29 15 9 5 11 6 1 0 357 355 355 350 348
27 82 82 78 99 94 78 57 44 70 63 359 106 76 59 55 73 109 125 140 150 161 173 172 163 151 125 120 227 75 45 29 11 7 10 11 7 6 3 1 359 357 355 353
20 123 120 90 108 112 98 87 88 80 69 88 119 96 68 91 108 129 146 162 169 172 170 166 162 136 141 161 212 77 54 31 4 15 15 14 10 10 6 2 359 357 356 356
109 152 184 144 150 166 148 50 78 96 65 355 39 62 119 117 90 103 146 174 173 167 170 167 159 136 158 172 159 59 85 36 15 20 20 17 12 8 4 1 359 359 356 352
144 135 53 127 174 226 79 69 90 102 87 71 90 79 54 79 87 69 43 132 140 167 163 156 123 139 143 192 130 113 85 41 30 29 26 19 8 7 3 2 0 358 352 358
264 159 117 164 186 107 175 186 185 226 107 77 79 121 120 127 136 76 61 67 112 127 127 120 128 129 174 142 115 102 71 47 47 36 26 17 4 4 1 2 358 356 353 357
121 186 200 141 165 189 101 125 209 223 155 94 70 116 156 180 265 82 98 101 87 100 114 119 124 151 149 113 116 94 55 58 50 31 19 8 2 358 359 356 356 353 355 355
153 159 185 153 135 122 114 107 146 231 70 103 82 94 130 67 50 112 110 91 101 107 113 121 154 143 108 115 107 78 70 61 58 24 5 5 358 360 353 350 357 355 356 356
168 159 167 166 159 186 153 144 279 86 107 116 103 101 101 113 119 120 108 117 123 121 127 162 122 115 109 111 92 77 75 77 46 13 1 359 357 356 351 353 360 2 2 360
185 335 129 346 54 99 107 85 95 89 124 115 117 118 125 127 128 124 117 124 120 138 130 126 116 115 109 95 54 80 88 67 20 13 350 342 353 357 3 359 2 5 6 2
136 159 110 169 124 117 111 99 91 97 105 104 118 123 131 129 131 122 129 122 129 123 123 116 125 120 107 86 77 93 47 38 51 260 330 3 8 343 11 14 9 10 10 1
33 170 139 92 128 128 123 111 115 108 108 110 112 123 129 132 130 132 126 126 130 122 124 126 117 107 79 78 84 73 33 343 348 2 13 9 6 4 4 25 21 17 30 10
193 140 198 149 157 171 141 131 131 125 122 121 124 124 128 131 131 128 128 130 131 128 128 120 107 108 113 105 79 41 28 8 3 18 17 27 359 4 7 8 18 112 84 29